Wetterdaten: Mittwoch, 08.04.2015
Datum Zeit Temp. A. Feuchte A. Luftdruck Regen Wind Richtung Richtung Sonnenschein ET UV Solar Taupunkt Windchill Windben Empfang
08.04.2015 00:00 4,0 C 58 % 1032,4 hPa 0,0 l/m 0,0 km/h (0 Bft) O-SO 121 0 min 0,000 mm 0,0 UV-I 0 W/m -3,5 C 4,0 C 0,0 km/h (0 Bft) 0,00 %
08.04.2015 00:15 4,0 C 57 % 1032,3 hPa 0,0 l/m 1,4 km/h (1 Bft) SO 129 0 min 0,000 mm 0,0 UV-I 0 W/m -3,7 C 4,0 C 4,0 km/h (1 Bft) 0,00 %
08.04.2015 00:30 3,9 C 59 % 1032,2 hPa 0,0 l/m 0,0 km/h (0 Bft) O-NO 63 0 min 0,000 mm 0,0 UV-I 0 W/m -3,4 C 3,9 C 0,0 km/h (0 Bft) 0,00 %
08.04.2015 00:45 3,8 C 61 % 1032,4 hPa 0,0 l/m 0,7 km/h (0 Bft) S 180 0 min 0,000 mm 0,0 UV-I 0 W/m -3,0 C 3,8 C 4,0 km/h (1 Bft) 0,00 %
08.04.2015 01:00 4,0 C 58 % 1032,1 hPa 0,0 l/m 3,2 km/h (1 Bft) S-SW 211 0 min 0,000 mm 0,0 UV-I 0 W/m -3,5 C 4,0 C 7,9 km/h (2 Bft) 0,00 %
08.04.2015 01:15 4,1 C 57 % 1032,1 hPa 0,0 l/m 1,4 km/h (1 Bft) O-SO 118 0 min 0,000 mm 0,0 UV-I 0 W/m -3,6 C 4,1 C 4,0 km/h (1 Bft) 0,00 %
08.04.2015 01:30 4,3 C 56 % 1031,7 hPa 0,0 l/m 2,2 km/h (1 Bft) S 174 0 min 0,000 mm 0,0 UV-I 0 W/m -3,7 C 4,3 C 4,0 km/h (1 Bft) 0,00 %
08.04.2015 01:45 4,4 C 56 % 1031,7 hPa 0,0 l/m 10,8 km/h (2 Bft) W-SW 255 0 min 0,000 mm 0,0 UV-I 0 W/m -3,6 C 0,8 C 15,8 km/h (3 Bft) 0,00 %
08.04.2015 02:00 4,3 C 55 % 1031,6 hPa 0,0 l/m 4,0 km/h (1 Bft) S 173 0 min 0,000 mm 0,0 UV-I 0 W/m -3,9 C 4,3 C 7,9 km/h (2 Bft) 0,00 %
08.04.2015 02:15 4,2 C 57 % 1031,8 hPa 0,0 l/m 0,4 km/h (0 Bft) S-SW 199 0 min 0,000 mm 0,0 UV-I 0 W/m -3,5 C 4,2 C 4,0 km/h (1 Bft) 0,00 %
08.04.2015 02:30 4,0 C 56 % 1031,6 hPa 0,0 l/m 0,4 km/h (0 Bft) W-SW 246 0 min 0,000 mm 0,0 UV-I 0 W/m -4,0 C 4,0 C 4,0 km/h (1 Bft) 0,00 %
08.04.2015 02:45 4,1 C 56 % 1031,5 hPa 0,0 l/m 0,7 km/h (0 Bft) W-SW 254 0 min 0,000 mm 0,0 UV-I 0 W/m -3,9 C 4,1 C 4,0 km/h (1 Bft) 0,00 %
08.04.2015 03:00 4,2 C 55 % 1031,6 hPa 0,0 l/m 4,7 km/h (1 Bft) N-NW 345 0 min 0,000 mm 0,0 UV-I 0 W/m -4,0 C 4,2 C 7,9 km/h (2 Bft) 0,00 %
08.04.2015 03:15 4,1 C 55 % 1031,6 hPa 0,0 l/m 10,4 km/h (2 Bft) W-SW 255 0 min 0,000 mm 0,0 UV-I 0 W/m -4,1 C 0,8 C 15,8 km/h (3 Bft) 0,00 %
08.04.2015 03:30 3,9 C 56 % 1031,1 hPa 0,0 l/m 1,8 km/h (1 Bft) W-SW 255 0 min 0,000 mm 0,0 UV-I 0 W/m -4,1 C 3,9 C 7,9 km/h (2 Bft) 0,00 %
08.04.2015 03:45 3,7 C 57 % 1031,1 hPa 0,0 l/m 2,2 km/h (1 Bft) SW 221 0 min 0,000 mm 0,0 UV-I 0 W/m -4,0 C 3,7 C 4,0 km/h (1 Bft) 0,00 %
08.04.2015 04:00 3,7 C 56 % 1031,0 hPa 0,0 l/m 6,8 km/h (2 Bft) S-SW 212 0 min 0,000 mm 0,0 UV-I 0 W/m -4,2 C 3,3 C 7,9 km/h (2 Bft) 0,00 %
08.04.2015 04:15 3,7 C 55 % 1030,9 hPa 0,0 l/m 0,4 km/h (0 Bft) N-NW 330 0 min 0,000 mm 0,0 UV-I 0 W/m -4,5 C 3,7 C 4,0 km/h (1 Bft) 0,00 %
08.04.2015 04:30 3,9 C 55 % 1030,7 hPa 0,0 l/m 7,9 km/h (2 Bft) W-SW 256 0 min 0,000 mm 0,0 UV-I 0 W/m -4,3 C 2,5 C 11,9 km/h (2 Bft) 0,00 %
08.04.2015 04:45 4,0 C 53 % 1030,7 hPa 0,0 l/m 4,7 km/h (1 Bft) N-NW 327 0 min 0,000 mm 0,0 UV-I 0 W/m -4,7 C 4,0 C 7,9 km/h (2 Bft) 0,00 %
08.04.2015 05:00 4,3 C 52 % 1030,6 hPa 0,0 l/m 7,9 km/h (2 Bft) W-NW 294 0 min 0,000 mm 0,0 UV-I 0 W/m -4,7 C 3,0 C 11,9 km/h (2 Bft) 0,00 %
08.04.2015 05:15 4,4 C 52 % 1030,9 hPa 0,0 l/m 5,8 km/h (2 Bft) W-SW 256 0 min 0,000 mm 0,0 UV-I 0 W/m -4,6 C 4,4 C 11,9 km/h (2 Bft) 0,00 %
08.04.2015 05:30 4,3 C 52 % 1031,0 hPa 0,0 l/m 10,8 km/h (2 Bft) SW 226 0 min 0,000 mm 0,0 UV-I 0 W/m -4,7 C 0,7 C 11,9 km/h (2 Bft) 0,00 %
08.04.2015 05:45 4,3 C 52 % 1031,0 hPa 0,0 l/m 4,7 km/h (1 Bft) SW 229 0 min 0,000 mm 0,0 UV-I 0 W/m -4,7 C 4,3 C 7,9 km/h (2 Bft) 0,00 %
08.04.2015 06:00 4,2 C 52 % 1031,0 hPa 0,0 l/m 7,9 km/h (2 Bft) W-SW 253 0 min 0,000 mm 0,0 UV-I 0 W/m -4,8 C 2,8 C 11,9 km/h (2 Bft) 0,00 %
08.04.2015 06:15 4,1 C 53 % 1030,8 hPa 0,0 l/m 0,4 km/h (0 Bft) W-SW 254 0 min 0,000 mm 0,0 UV-I 0 W/m -4,6 C 4,1 C 4,0 km/h (1 Bft) 0,00 %
08.04.2015 06:30 4,0 C 54 % 1030,9 hPa 0,0 l/m 5,4 km/h (1 Bft) S-SW 213 0 min 0,000 mm 0,0 UV-I 0 W/m -4,4 C 4,0 C 7,9 km/h (2 Bft) 0,00 %
08.04.2015 06:45 3,9 C 54 % 1030,9 hPa 0,0 l/m 4,7 km/h (1 Bft) W-SW 255 0 min 0,000 mm 0,0 UV-I 1 W/m -4,5 C 3,9 C 7,9 km/h (2 Bft) 0,00 %
08.04.2015 07:00 4,1 C 53 % 1030,8 hPa 0,0 l/m 0,0 km/h (0 Bft) S-SO 154 0 min 0,000 mm 0,0 UV-I 18 W/m -4,6 C 4,1 C 0,0 km/h (0 Bft) 0,00 %
08.04.2015 07:15 4,2 C 54 % 1031,1 hPa 0,0 l/m 2,2 km/h (1 Bft) W-SW 255 0 min 0,000 mm 0,0 UV-I 27 W/m -4,3 C 4,2 C 4,0 km/h (1 Bft) 0,00 %
08.04.2015 07:30 4,3 C 52 % 1031,0 hPa 0,0 l/m 4,0 km/h (1 Bft) S-SW 201 0 min 0,000 mm 1,0 UV-I 56 W/m -4,7 C 4,3 C 7,9 km/h (2 Bft) 0,00 %
08.04.2015 07:45 4,6 C 51 % 1030,8 hPa 0,0 l/m 7,9 km/h (2 Bft) N-NW 335 0 min 0,000 mm 1,0 UV-I 69 W/m -4,6 C 3,3 C 15,8 km/h (3 Bft) 0,00 %
08.04.2015 08:00 4,9 C 51 % 1031,1 hPa 0,0 l/m 6,8 km/h (2 Bft) NW 307 0 min 0,000 mm 1,0 UV-I 0 W/m -4,4 C 4,6 C 11,9 km/h (2 Bft) 0,00 %
08.04.2015 08:15 5,1 C 51 % 1031,0 hPa 0,0 l/m 0,0 km/h (0 Bft) S 185 15 min 0,000 mm 1,0 UV-I 306 W/m -4,2 C 5,1 C 0,0 km/h (0 Bft) 0,00 %
08.04.2015 08:30 5,5 C 50 % 1031,0 hPa 0,0 l/m 0,0 km/h (0 Bft) SW 229 15 min 0,000 mm 1,0 UV-I 454 W/m -4,1 C 5,5 C 0,0 km/h (0 Bft) 0,00 %
08.04.2015 08:45 6,2 C 48 % 1030,9 hPa 0,0 l/m 0,4 km/h (0 Bft) S 183 15 min 0,000 mm 2,0 UV-I 563 W/m -4,0 C 6,2 C 4,0 km/h (1 Bft) 0,00 %
08.04.2015 09:00 6,7 C 46 % 1031,0 hPa 0,0 l/m 5,8 km/h (2 Bft) W-SW 255 15 min 0,000 mm 2,0 UV-I 663 W/m -4,1 C 6,7 C 11,9 km/h (2 Bft) 0,00 %
08.04.2015 09:15 7,1 C 45 % 1031,1 hPa 0,0 l/m 6,5 km/h (2 Bft) W-SW 251 15 min 0,000 mm 2,0 UV-I 810 W/m -4,0 C 7,0 C 7,9 km/h (2 Bft) 0,00 %
08.04.2015 09:30 7,6 C 44 % 1030,9 hPa 0,0 l/m 0,4 km/h (0 Bft) SW 214 15 min 0,000 mm 2,0 UV-I 700 W/m -3,9 C 7,6 C 4,0 km/h (1 Bft) 0,00 %
08.04.2015 09:45 8,4 C 42 % 1030,7 hPa 0,0 l/m 0,0 km/h (0 Bft) S 184 15 min 0,000 mm 3,0 UV-I 500 W/m -3,8 C 8,4 C 0,0 km/h (0 Bft) 0,00 %
08.04.2015 10:00 9,5 C 41 % 1030,3 hPa 0,0 l/m 8,3 km/h (2 Bft) SW 222 15 min 0,000 mm 3,0 UV-I 400 W/m -3,1 C 8,1 C 11,9 km/h (2 Bft) 0,00 %
08.04.2015 10:15 7,9 C 45 % 1031,0 hPa 0,0 l/m 4,3 km/h (1 Bft) NW 312 15 min 0,000 mm 2,0 UV-I 799 W/m -3,3 C 7,9 C 7,9 km/h (2 Bft) 0,00 %
08.04.2015 10:30 7,9 C 45 % 1030,9 hPa 0,0 l/m 4,0 km/h (1 Bft) SW 216 15 min 0,000 mm 3,0 UV-I 788 W/m -3,3 C 7,9 C 7,9 km/h (2 Bft) 0,00 %
08.04.2015 10:45 8,4 C 43 % 1030,6 hPa 0,0 l/m 0,4 km/h (0 Bft) W-SW 254 15 min 0,000 mm 3,0 UV-I 566 W/m -3,4 C 8,4 C 4,0 km/h (1 Bft) 0,00 %
08.04.2015 11:00 8,5 C 45 % 1030,6 hPa 0,0 l/m 0,0 km/h (0 Bft) S 173 15 min 0,000 mm 3,0 UV-I 566 W/m -2,7 C 8,5 C 0,0 km/h (0 Bft) 0,00 %
08.04.2015 11:15 8,8 C 45 % 1030,4 hPa 0,0 l/m 5,4 km/h (1 Bft) SW 216 15 min 0,000 mm 3,0 UV-I 678 W/m -2,5 C 8,8 C 11,9 km/h (2 Bft) 0,00 %
08.04.2015 11:30 9,3 C 44 % 1030,3 hPa 0,0 l/m 3,2 km/h (1 Bft) S 182 15 min 0,000 mm 4,0 UV-I 789 W/m -2,3 C 9,3 C 7,9 km/h (2 Bft) 0,00 %
08.04.2015 11:45 10,2 C 44 % 1029,8 hPa 0,0 l/m 2,2 km/h (1 Bft) W-SW 256 15 min 0,000 mm 4,0 UV-I 678 W/m -1,5 C 10,2 C 4,0 km/h (1 Bft) 0,00 %
08.04.2015 12:00 10,7 C 42 % 1029,7 hPa 0,0 l/m 7,9 km/h (2 Bft) S-SW 193 15 min 0,000 mm 4,0 UV-I 788 W/m -1,7 C 9,7 C 11,9 km/h (2 Bft) 0,00 %
08.04.2015 12:15 10,5 C 43 % 1029,9 hPa 0,0 l/m 9,7 km/h (2 Bft) W-NW 300 15 min 0,000 mm 4,0 UV-I 455 W/m -1,5 C 8,3 C 11,9 km/h (2 Bft) 0,00 %
08.04.2015 12:30 10,7 C 42 % 1029,9 hPa 0,0 l/m 9,7 km/h (2 Bft) W-SW 256 15 min 0,000 mm 6,0 UV-I 677 W/m -1,7 C 8,5 C 11,9 km/h (2 Bft) 0,00 %
08.04.2015 12:45 11,7 C 41 % 1029,6 hPa 0,0 l/m 7,9 km/h (2 Bft) NW 317 15 min 0,000 mm 5,0 UV-I 777 W/m -1,1 C 10,7 C 11,9 km/h (2 Bft) 0,00 %
08.04.2015 13:00 11,8 C 41 % 1029,4 hPa 0,0 l/m 6,5 km/h (2 Bft) SW 228 15 min 0,000 mm 3,0 UV-I 457 W/m -1,0 C 11,8 C 11,9 km/h (2 Bft) 0,00 %
08.04.2015 13:15 10,8 C 44 % 1029,7 hPa 0,0 l/m 9,7 km/h (2 Bft) W 272 15 min 0,000 mm 2,0 UV-I 895 W/m -1,0 C 8,6 C 11,9 km/h (2 Bft) 0,00 %
08.04.2015 13:30 10,8 C 45 % 1029,6 hPa 0,0 l/m 0,0 km/h (0 Bft) O-SO 110 0 min 0,000 mm 4,0 UV-I 378 W/m -0,6 C 10,8 C 0,0 km/h (0 Bft) 0,00 %
08.04.2015 13:45 10,9 C 45 % 1029,7 hPa 0,0 l/m 0,7 km/h (0 Bft) W-SW 255 15 min 0,000 mm 3,0 UV-I 678 W/m -0,6 C 10,9 C 4,0 km/h (1 Bft) 0,00 %
08.04.2015 14:00 10,8 C 44 % 1029,8 hPa 0,0 l/m 4,0 km/h (1 Bft) SW 214 15 min 0,000 mm 3,0 UV-I 477 W/m -1,0 C 10,8 C 7,9 km/h (2 Bft) 0,00 %
08.04.2015 14:15 11,4 C 44 % 1029,7 hPa 0,0 l/m 9,4 km/h (2 Bft) W 266 0 min 0,000 mm 3,0 UV-I 377 W/m -0,4 C 9,5 C 11,9 km/h (2 Bft) 0,00 %
08.04.2015 14:30 10,6 C 47 % 1029,9 hPa 0,0 l/m 1,8 km/h (1 Bft) SW 230 15 min 0,000 mm 3,0 UV-I 699 W/m -0,2 C 10,6 C 4,0 km/h (1 Bft) 0,00 %
08.04.2015 14:45 10,5 C 48 % 1030,1 hPa 0,0 l/m 0,0 km/h (0 Bft) SW 233 0 min 0,000 mm 3,0 UV-I 345 W/m -0,0 C 10,5 C 0,0 km/h (0 Bft) 0,00 %
08.04.2015 15:00 11,1 C 46 % 1030,0 hPa 0,0 l/m 14,0 km/h (3 Bft) W-SW 253 15 min 0,000 mm 3,0 UV-I 789 W/m -0,1 C 6,9 C 15,8 km/h (3 Bft) 0,00 %
08.04.2015 15:15 11,1 C 48 % 1029,9 hPa 0,0 l/m 7,2 km/h (2 Bft) SW 214 0 min 0,000 mm 3,0 UV-I 274 W/m 0,5 C 10,5 C 11,9 km/h (2 Bft) 0,00 %
08.04.2015 15:30 10,6 C 48 % 1029,6 hPa 0,0 l/m 19,4 km/h (3 Bft) W-SW 255 15 min 0,000 mm 3,0 UV-I 563 W/m 0,1 C 4,3 C 24,1 km/h (4 Bft) 0,00 %
08.04.2015 15:45 11,0 C 47 % 1029,9 hPa 0,0 l/m 14,8 km/h (3 Bft) W-SW 256 15 min 0,000 mm 3,0 UV-I 333 W/m 0,1 C 6,4 C 15,8 km/h (3 Bft) 0,00 %
08.04.2015 16:00 11,0 C 47 % 1029,6 hPa 0,0 l/m 9,0 km/h (2 Bft) NW 309 0 min 0,000 mm 2,0 UV-I 245 W/m 0,1 C 9,3 C 11,9 km/h (2 Bft) 0,00 %
08.04.2015 16:15 11,2 C 47 % 1029,6 hPa 0,0 l/m 4,0 km/h (1 Bft) S 174 15 min 0,000 mm 2,0 UV-I 298 W/m 0,3 C 11,2 C 7,9 km/h (2 Bft) 0,00 %
08.04.2015 16:30 11,1 C 48 % 1029,5 hPa 0,0 l/m 6,8 km/h (2 Bft) NW 324 0 min 0,000 mm 2,0 UV-I 183 W/m 0,5 C 10,8 C 11,9 km/h (2 Bft) 0,00 %
08.04.2015 16:45 10,5 C 50 % 1029,5 hPa 0,0 l/m 2,9 km/h (1 Bft) W-SW 252 0 min 0,000 mm 1,0 UV-I 148 W/m 0,5 C 10,5 C 4,0 km/h (1 Bft) 0,00 %
08.04.2015 17:00 10,6 C 50 % 1029,6 hPa 0,0 l/m 4,3 km/h (1 Bft) W-SW 252 0 min 0,000 mm 1,0 UV-I 140 W/m 0,6 C 10,6 C 7,9 km/h (2 Bft) 0,00 %
08.04.2015 17:15 10,1 C 51 % 1029,8 hPa 0,0 l/m 5,4 km/h (1 Bft) W-SW 256 0 min 0,000 mm 1,0 UV-I 94 W/m 0,4 C 10,1 C 7,9 km/h (2 Bft) 0,00 %
08.04.2015 17:30 10,0 C 50 % 1030,0 hPa 0,0 l/m 4,3 km/h (1 Bft) W-SW 253 0 min 0,000 mm 1,0 UV-I 69 W/m 0,1 C 10,0 C 7,9 km/h (2 Bft) 0,00 %
08.04.2015 17:45 9,9 C 51 % 1030,0 hPa 0,0 l/m 1,8 km/h (1 Bft) S-SW 211 0 min 0,000 mm 1,0 UV-I 55 W/m 0,2 C 9,9 C 4,0 km/h (1 Bft) 0,00 %
08.04.2015 18:00 9,8 C 51 % 1029,8 hPa 0,0 l/m 3,2 km/h (1 Bft) W-SW 251 0 min 0,000 mm 1,0 UV-I 54 W/m 0,2 C 9,8 C 4,0 km/h (1 Bft) 0,00 %
08.04.2015 18:15 9,8 C 51 % 1029,9 hPa 0,0 l/m 0,7 km/h (0 Bft) W-SW 256 0 min 0,000 mm 0,0 UV-I 42 W/m 0,2 C 9,8 C 4,0 km/h (1 Bft) 0,00 %
08.04.2015 18:30 9,7 C 52 % 1029,9 hPa 0,0 l/m 0,0 km/h (0 Bft) S-SW 195 0 min 0,000 mm 0,0 UV-I 31 W/m 0,3 C 9,7 C 0,0 km/h (0 Bft) 0,00 %
08.04.2015 18:45 9,5 C 53 % 1029,9 hPa 0,0 l/m 0,0 km/h (0 Bft) S 191 0 min 0,000 mm 0,0 UV-I 25 W/m 0,4 C 9,5 C 0,0 km/h (0 Bft) 0,00 %
08.04.2015 19:00 9,3 C 54 % 1030,2 hPa 0,0 l/m 0,0 km/h (0 Bft) S 187 0 min 0,000 mm 0,0 UV-I 17 W/m 0,5 C 9,3 C 0,0 km/h (0 Bft) 0,00 %
08.04.2015 19:15 9,2 C 55 % 1030,2 hPa 0,0 l/m 0,0 km/h (0 Bft) SW 221 0 min 0,000 mm 0,0 UV-I 7 W/m 0,6 C 9,2 C 0,0 km/h (0 Bft) 0,00 %
08.04.2015 19:30 9,1 C 54 % 1030,5 hPa 0,0 l/m 0,0 km/h (0 Bft) S 185 0 min 0,000 mm 0,0 UV-I 0 W/m 0,3 C 9,1 C 0,0 km/h (0 Bft) 0,00 %
08.04.2015 19:45 8,9 C 56 % 1030,7 hPa 0,0 l/m 0,0 km/h (0 Bft) S-SW 192 0 min 0,000 mm 0,0 UV-I 0 W/m 0,6 C 8,9 C 0,0 km/h (0 Bft) 0,00 %
08.04.2015 20:00 8,8 C 56 % 1030,8 hPa 0,0 l/m 0,0 km/h (0 Bft) SW 218 0 min 0,000 mm 0,0 UV-I 0 W/m 0,5 C 8,8 C 0,0 km/h (0 Bft) 0,00 %
08.04.2015 20:15 8,6 C 59 % 1030,8 hPa 0,0 l/m 0,0 km/h (0 Bft) S-SW 197 0 min 0,000 mm 0,0 UV-I 0 W/m 1,0 C 8,6 C 0,0 km/h (0 Bft) 0,00 %
08.04.2015 20:30 8,4 C 59 % 1031,5 hPa 0,0 l/m 0,0 km/h (0 Bft) S 184 0 min 0,000 mm 0,0 UV-I 0 W/m 0,9 C 8,4 C 0,0 km/h (0 Bft) 0,00 %
08.04.2015 20:45 8,4 C 60 % 1031,2 hPa 0,0 l/m 0,0 km/h (0 Bft) S 176 0 min 0,000 mm 0,0 UV-I 0 W/m 1,1 C 8,4 C 0,0 km/h (0 Bft) 0,00 %
08.04.2015 21:00 8,2 C 62 % 1031,5 hPa 0,0 l/m 0,0 km/h (0 Bft) S 189 0 min 0,000 mm 0,0 UV-I 0 W/m 1,4 C 8,2 C 0,0 km/h (0 Bft) 0,00 %
08.04.2015 21:15 8,1 C 62 % 1031,3 hPa 0,0 l/m 0,0 km/h (0 Bft) S-SW 197 0 min 0,000 mm 0,0 UV-I 0 W/m 1,3 C 8,1 C 0,0 km/h (0 Bft) 0,00 %
08.04.2015 21:30 7,9 C 63 % 1031,4 hPa 0,0 l/m 0,0 km/h (0 Bft) S-SW 198 0 min 0,000 mm 0,0 UV-I 0 W/m 1,3 C 7,9 C 0,0 km/h (0 Bft) 0,00 %
08.04.2015 21:45 7,8 C 64 % 1031,7 hPa 0,0 l/m 0,0 km/h (0 Bft) S-SW 199 0 min 0,000 mm 0,0 UV-I 0 W/m 1,4 C 7,8 C 0,0 km/h (0 Bft) 0,00 %
08.04.2015 22:00 7,6 C 64 % 1031,6 hPa 0,0 l/m 0,0 km/h (0 Bft) S 191 0 min 0,000 mm 0,0 UV-I 0 W/m 1,2 C 7,6 C 0,0 km/h (0 Bft) 0,00 %
08.04.2015 22:15 7,5 C 64 % 1031,9 hPa 0,0 l/m 0,0 km/h (0 Bft) S-SW 195 0 min 0,000 mm 0,0 UV-I 0 W/m 1,1 C 7,5 C 0,0 km/h (0 Bft) 0,00 %
08.04.2015 22:30 7,3 C 65 % 1031,7 hPa 0,0 l/m 0,0 km/h (0 Bft) S-SW 198 0 min 0,000 mm 0,0 UV-I 0 W/m 1,2 C 7,3 C 0,0 km/h (0 Bft) 0,00 %
08.04.2015 22:45 7,2 C 66 % 1032,0 hPa 0,0 l/m 0,0 km/h (0 Bft) S-SW 195 0 min 0,000 mm 0,0 UV-I 0 W/m 1,3 C 7,2 C 0,0 km/h (0 Bft) 0,00 %
08.04.2015 23:00 7,1 C 66 % 1032,0 hPa 0,0 l/m 0,0 km/h (0 Bft) S-SW 198 0 min 0,000 mm 0,0 UV-I 0 W/m 1,2 C 7,1 C 0,0 km/h (0 Bft) 0,00 %
08.04.2015 23:15 7,1 C 65 % 1031,9 hPa 0,0 l/m 0,0 km/h (0 Bft) S-SW 201 0 min 0,000 mm 0,0 UV-I 0 W/m 1,0 C 7,1 C 0,0 km/h (0 Bft) 0,00 %
08.04.2015 23:30 7,1 C 67 % 1032,0 hPa 0,0 l/m 0,0 km/h (0 Bft) S-SW 203 0 min 0,000 mm 0,0 UV-I 0 W/m 1,4 C 7,1 C 0,0 km/h (0 Bft) 0,00 %
08.04.2015 23:45 7,0 C 68 % 1032,1 hPa 0,0 l/m 0,0 km/h (0 Bft) S-SW 199 0 min 0,000 mm 0,0 UV-I 0 W/m 1,5 C 7,0 C 0,0 km/h (0 Bft) 0,00 %
_ Min-Zeit 03:45 10:00 13:00 - 00:00 - - - - - - 06:00 05:30 00:00 00:00
Minimum _ 3,7 C 41 % 1029,4 hPa - 0,0 km/h (0 Bft) - - - - - - -4,8 C 0,7 C 0,0 km/h (0 Bft) 0,00 %
_ Max-Zeit 13:00 23:45 00:00 00:00 15:30 - - 08:15 00:00 12:30 13:15 23:45 13:00 15:30 00:00
Maximum _ 11,8 C 68 % 1032,4 hPa 0,0 l/m 19,4 km/h
W-SW (3 Bft)
- - 15 min 0,000 mm 6,0 UV-I 895 W/m 1,5 C 11,8 C 24,1 km/h
W-SW (4 Bft)
0,00 %
Durchschnitt _ 7,4 C 52 % 1030,8 hPa #0,0 l/m 3,6 km/h (1 Bft) W-SW - #7:00 h #0,000 mm 2,5 UV-I 396 W/m -1,8 C 7,0 C 5,9 km/h (2 Bft) 0,00 %